RH
11 14 16 18 21 24 27 29 32 32 26 24 25 25 26 27 26 28 29 30 29 33 36 39 42 43 42 43 42 42 49 49 46 43 37 32 32 33
12 15 18 21 23 26 28 30 33 33 29 28 26 27 27 28 29 32 34 34 33 35 37 39 43 46 46 46 44 44 42 44 49 47 43 37 33 31
14 18 22 24 26 27 30 32 32 30 28 23 26 25 28 31 31 35 35 35 34 36 36 36 40 45 47 50 48 49 48 46 45 44 40 42 36 32
18 21 23 23 26 28 30 31 29 28 29 27 23 26 29 31 31 31 33 34 33 32 27 30 37 40 46 49 50 52 53 52 49 44 38 37 36 31
22 23 24 26 28 28 28 27 26 25 24 24 25 28 28 31 29 30 31 31 29 26 27 32 37 40 43 47 51 55 56 55 53 50 45 38 31 28
26 28 30 30 30 32 32 31 29 25 25 26 28 28 30 29 30 28 25 26 23 26 31 34 38 41 45 51 55 55 53 54 52 46 44 41 36 29
31 32 33 34 34 33 34 32 30 27 27 28 29 31 34 31 29 27 28 28 26 30 34 37 40 43 48 56 57 58 59 55 50 46 42 39 36 30
34 34 36 36 36 37 36 34 33 28 28 30 30 33 36 34 30 32 34 33 30 33 39 41 43 46 51 48 50 50 50 49 54 53 47 43 36 30
35 36 39 39 39 41 40 35 32 28 33 34 33 36 36 34 34 35 38 38 38 40 43 42 46 48 52 44 44 47 45 47 47 55 57 47 42 35
37 40 42 40 40 40 36 34 32 28 30 31 34 35 37 36 36 38 40 41 40 42 45 45 47 50 51 42 44 52 55 51 46 45 50 55 48 44
39 41 41 38 38 36 35 34 29 28 29 31 31 34 40 38 39 38 40 40 42 42 46 49 48 48 53 46 52 57 55 57 56 56 54 48 51 47
38 38 36 38 38 38 35 31 30 30 29 31 32 34 37 39 41 40 41 41 44 44 50 51 50 50 59 53 55 57 57 53 54 59 59 53 51 53
33 34 36 39 39 37 34 34 34 34 35 35 34 33 34 37 36 35 37 41 46 50 53 55 53 53 60 67 54 54 55 49 50 54 61 63 62 60
33 35 38 39 34 34 34 36 37 37 36 35 34 36 36 35 37 37 37 41 48 53 56 58 56 55 56 67 62 53 55 48 49 57 66 69 68 63
34 33 34 32 33 36 37 38 37 37 36 35 35 37 37 38 40 37 38 41 47 54 58 59 57 56 58 62 74 58 57 51 50 57 64 67 69 67
38 37 35 36 36 35 35 35 36 38 38 37 36 37 38 39 39 38 38 42 48 54 57 58 56 55 58 67 75 72 60 61 50 53 62 62 67 63
38 35 34 35 34 32 33 37 39 38 37 36 35 37 38 39 40 40 40 44 51 55 57 56 56 56 59 65 76 79 68 55 51 49 53 52 54 58
37 37 36 36 35 36 38 38 38 39 36 35 36 38 39 41 42 42 42 43 51 55 57 58 55 53 57 60 65 76 79 66 54 51 46 45 43 52
40 38 37 36 37 38 39 38 38 37 35 36 36 38 39 43 44 44 44 45 49 52 53 55 55 54 54 60 65 70 82 80 64 52 47 44 46 47
42 37 36 37 37 37 37 37 36 34 34 35 36 38 38 43 46 47 47 48 52 55 55 54 54 52 53 54 62 68 77 85 83 67 53 52 50 49
42 38 39 37 35 35 36 35 34 34 33 33 36 37 38 43 49 50 50 50 54 58 60 57 55 53 53 52 54 64 73 82 86 81 69 56 54 51
39 38 38 37 36 35 35 34 33 33 33 32 35 36 36 40 49 52 53 52 56 61 63 59 58 56 55 53 54 56 66 76 87 87 76 68 61 57
40 36 36 35 34 34 33 32 31 30 30 30 32 32 33 37 48 54 56 55 59 62 65 64 63 58 58 61 57 53 62 67 80 84 83 76 68 61